EW5674 Weather Reports


Display with metric or nautical units.
time (UTC)temp
F
wind
direction
speed
MPH
gust
MPH
rain 1hr
in
rain 24hr
in
rain mn
in
humidity
%
barometer
mb
20260901031542 49 175 0.0 0.0 0.00 0.01 0.00 1 1008.8
20260901030033 48 212 0.0 0.0 0.00 0.01 0.00 1 1008.8
20260901024529 48 175 0.0 0.0 0.00 0.01 0.00 1 1008.7
20260901023024 48 175 0.0 0.0 0.00 0.01 0.00 1 1008.6
20260901021523 48 175 0.0 0.0 0.00 0.01 0.00 1 1008.5
20260901020021 48 175 0.0 0.0 0.00 0.01 0.00 1 1008.5
20260901014511 48 175 0.0 0.0 0.00 0.01 0.00 1 1008.4
20260901013007 48 175 0.0 0.0 0.00 0.01 0.00 1 1008.4
20260901011510 48 175 0.0 0.0 0.00 0.01 0.00 1 1008.4
20260901010059 49 212 0.0 0.0 0.00 0.01 0.00 1 1008.2
20260901004612 49 212 0.0 0.0 0.00 0.01 0.00 1 1008.2
20260901003053 49 175 0.0 0.0 0.00 0.01 0.00 1 1008.2
20260901001552 49 212 0.0 0.0 0.00 0.01 0.00 1 1008.2
20260901000047 50 175 0.0 0.0 0.00 0.01 0.00 1 1008.2
20260831234537 50 212 0.0 0.0 0.00 0.01 0.00 1 1008.1
20260831233033 50 212 0.0 0.0 0.00 0.01 0.00 1 1008.0
20260831231528 51 175 0.0 0.0 0.00 0.01 0.00 1 1007.9
20260831230023 51 175 0.0 0.0 0.00 0.01 0.00 1 1007.9
20260831224519 51 175 0.0 0.0 0.00 0.01 0.00 1 1007.9
20260831223015 52 175 0.0 0.0 0.00 0.01 0.00 1 1007.7
20260831221522 52 175 0.0 0.0 0.00 0.01 0.00 1 1007.6
20260831220007 53 175 0.0 1.0 0.00 0.01 0.00 1 1007.6
20260831214501 53 212 0.0 1.0 0.00 0.01 0.01 1 1007.6
20260831213058 53 175 0.0 1.0 0.00 0.01 0.01 1 1007.5
20260831211553 54 212 0.0 2.0 0.00 0.01 0.01 1 1007.4
20260831210049 54 175 0.0 0.0 0.00 0.01 0.01 1 1007.3
20260831204545 55 175 0.0 0.0 0.00 0.01 0.01 1 1007.0
20260831203040 55 175 0.0 1.0 0.00 0.01 0.01 1 1007.0
20260831201535 56 175 0.0 0.0 0.00 0.01 0.01 1 1006.9
20260831200031 56 175 0.0 2.0 0.00 0.01 0.01 1 1007.0
20260831194527 56 175 0.0 1.0 0.00 0.02 0.01 1 1006.9
20260831193036 56 175 0.0 3.0 0.00 0.02 0.01 1 1006.8
20260831191518 57 154 0.0 2.0 0.00 0.02 0.01 1 1006.7
20260831190032 57 154 0.0 0.0 0.00 0.02 0.01 1 1006.6
20260831184509 58 154 0.0 0.0 0.00 0.02 0.01 1 1006.4
20260831183008 58 154 0.0 1.0 0.00 0.02 0.01 1 1006.3
20260831181501 58 154 0.0 2.0 0.00 0.02 0.01 1 1006.2
20260831180057 58 154 0.0 3.0 0.00 0.02 0.01 1 1005.9
20260831174606 59 157 0.0 4.0 0.00 0.02 0.01 1 1006.0
20260831173048 60 156 0.0 4.0 0.00 0.02 0.01 1 1005.9
20260831171543 62 158 0.0 5.0 0.00 0.02 0.01 1 1005.8
20260831170039 65 141 2.0 6.0 0.00 0.02 0.01 1 1005.7
20260831164548 65 175 1.0 5.0 0.00 0.02 0.01 1 1005.7
20260831163035 64 165 1.0 5.0 0.00 0.02 0.01 1 1005.7
20260831161529 64 161 1.0 7.0 0.00 0.02 0.01 1 1005.6
20260831160021 65 212 2.0 9.0 0.00 0.02 0.01 1 1005.5
20260831154524 67 196 1.0 8.0 0.00 0.02 0.01 1 1005.4
20260831153015 68 221 2.0 7.0 0.00 0.02 0.01 1 1005.4
20260831151508 67 174 2.0 6.0 0.00 0.02 0.01 1 1005.3
20260831150004 65 158 1.0 6.0 0.00 0.02 0.01 1 1005.3
20260831144601 67 117 2.0 10.0 0.00 0.02 0.01 1 1005.3
20260831143056 67 131 2.0 8.0 0.00 0.02 0.01 1 1005.2
20260831141552 67 132 2.0 10.0 0.00 0.02 0.01 1 1005.1
20260831140046 67 223 3.0 9.0 0.00 0.02 0.01 1 1005.0
20260831134551 67 160 4.0 10.0 0.00 0.02 0.01 1 1004.9
20260831133037 67 130 2.0 8.0 0.00 0.02 0.01 1 1004.8
20260831131537 67 207 2.0 8.0 0.00 0.02 0.01 1 1004.8
20260831130030 67 169 2.0 8.0 0.00 0.02 0.01 1 1004.7
20260831124525 67 198 2.0 9.0 0.00 0.02 0.01 1 1004.6
20260831123019 65 217 3.0 10.0 0.00 0.02 0.01 1 1004.6
20260831121522 65 140 4.0 9.0 0.01 0.02 0.01 1 1004.6
20260831120018 65 142 4.0 8.0 0.01 0.02 0.01 1 1004.6
20260831114507 66 195 3.0 8.0 0.01 0.02 0.01 1 1004.5
20260831113003 65 180 2.0 8.0 0.01 0.02 0.01 1 1004.4
20260831111557 65 190 2.0 8.0 0.00 0.02 0.00 1 1004.3
20260831110054 65 136 4.0 11.0 0.00 0.02 0.00 1 1004.5
20260831104556 66 212 1.0 6.0 0.00 0.02 0.00 1 1004.5
20260831103045 66 290 2.0 4.0 0.00 0.02 0.00 1 1004.5
20260831101545 65 240 1.0 4.0 0.00 0.02 0.00 1 1004.4
20260831100036 63 342 0.0 3.0 0.00 0.02 0.00 1 1004.4
20260831094540 63 303 2.0 3.0 0.00 0.02 0.00 1 1004.4
20260831093031 63 225 2.0 5.0 0.00 0.02 0.00 1 1004.4
20260831091536 62 241 2.0 4.0 0.00 0.02 0.00 1 1004.5
20260831090019 62 232 1.0 5.0 0.00 0.02 0.00 1 1004.4
20260831084540 61 203 2.0 4.0 0.00 0.02 0.00 1 1004.5
20260831083012 61 222 2.0 6.0 0.00 0.02 0.00 1 1004.5
20260831081506 60 236 1.0 4.0 0.00 0.02 0.00 1 1004.6
20260831080006 60 217 1.0 5.0 0.00 0.02 0.00 1 1004.6
20260831074558 59 233 0.0 5.0 0.00 0.02 0.00 1 1004.6
20260831073053 58 212 2.0 4.0 0.00 0.02 0.00 1 1004.5
20260831071551 57 212 1.0 6.0 0.00 0.02 0.00 1 1004.6
20260831070045 56 234 0.0 4.0 0.00 0.02 0.00 1 1004.6
20260831064549 56 239 0.0 3.0 0.00 0.02 0.00 1 1004.6
20260831063050 56 239 0.0 3.0 0.00 0.02 0.00 1 1004.6
20260831061531 56 239 2.0 4.0 0.00 0.02 0.00 1 1004.6
20260831060031 55 212 0.0 0.0 0.00 0.02 0.00 1 1004.8
20260831054523 55 212 0.0 0.0 0.00 0.03 0.00 1 1004.8
20260831053018 55 212 0.0 0.0 0.00 0.03 0.00 1 1004.9
20260831051525 55 212 0.0 2.0 0.00 0.03 0.00 1 1004.8
20260831050009 55 212 0.0 0.0 0.00 0.03 0.00 1 1004.8
20260831044507 55 212 0.0 0.0 0.00 0.03 0.00 1 1004.9
20260831043101 55 212 0.0 0.0 0.00 0.03 0.00 1 1005.0
20260831041556 55 212 0.0 0.0 0.00 0.03 0.00 1 1004.9
20260831040052 55 212 0.0 0.0 0.00 0.03 0.00 1 1004.8
20260831034558 55 212 0.0 0.0 0.00 0.03 0.00 1 1005.0
20260831033048 55 212 0.0 3.0 0.00 0.03 0.00 1 1005.0